Location: Croisilles
(50.1998°N, 2.8793°E)
Time: 19:54:04
(UTC+00:00)

NOSS 3-1 (A) - Pass Details

Date: 21 January 2021
Orbit: 735 x 1477 km, 63.4° (Epoch: 02 March)

Event Time Altitude Azimuth Distance (km) Brightness Sun altitude
Rises 19:09:29 0° 316° (NW) 3,854 7.2 -26.1°
Reaches altitude 10° 19:11:57 10° 317° (NW) 2,996 6.6 -26.5°
Maximum altitude 19:19:17 84° 46° (NE) 1,280 3.9 -27.6°
Enters shadow 19:21:43 51° 130° (SE) 1,609 4.2 -28.0°
